SCP
0 0 0 0 0 0 0 0 0 0 0 0 0 0 0 0 0 0 0 0 1 1 1 1 1 1 1 1 1 0 0 0 0 0 0 0 0 0 0 0 0 0 0 0 0 0 0 0 0
0 0 0 0 0 0 0 0 0 0 0 0 0 0 0 0 0 0 0 0 1 1 1 1 1 1 1 1 1 0 0 0 0 0 0 0 0 0 0 0 0 0 0 0 0 0 0 0 0
0 0 0 0 0 0 0 0 0 0 0 0 0 0 0 0 0 0 0 1 1 1 1 1 1 1 1 1 1 0 0 0 0 0 0 0 0 0 0 0 0 0 0 0 0 0 0 0 0
0 0 0 0 0 0 0 0 0 0 0 0 0 0 0 0 0 0 0 1 1 1 1 1 1 1 1 1 0 0 0 0 0 0 0 0 0 0 0 0 0 0 0 0 0 0 0 0 0
0 0 0 0 0 0 0 0 0 0 0 0 0 0 0 0 0 0 0 0 1 1 1 1 1 1 1 1 0 0 0 0 0 0 0 0 0 0 0 0 0 0 0 0 0 0 0 0 0
0 0 0 0 0 0 0 0 0 0 0 0 0 0 0 0 0 0 0 0 1 1 1 1 1 1 1 1 1 0 0 0 0 0 0 0 0 0 0 0 0 0 0 0 0 0 0 0 0
0 0 0 0 0 0 0 0 0 0 0 0 0 0 0 0 0 0 0 0 1 1 1 1 1 1 1 0 0 0 0 0 0 0 0 0 0 0 0 0 0 0 0 0 0 0 0 0 0
0 0 0 0 0 0 0 0 0 0 0 0 0 0 0 1 1 0 1 1 1 1 1 1 1 1 0 0 0 0 0 0 0 0 0 0 0 0 0 0 0 0 0 0 0 0 0 0 0
0 0 0 0 0 0 0 0 0 0 0 0 0 0 0 1 1 1 1 1 1 1 1 1 1 0 0 0 0 0 0 0 0 0 0 0 0 0 0 0 0 0 0 0 0 0 0 0 0
0 0 0 0 0 0 0 0 0 0 0 0 0 0 1 1 1 1 1 1 1 1 1 1 1 0 0 0 0 0 0 0 0 0 0 0 0 0 0 0 0 0 0 0 0 0 0 0 0
0 0 0 0 0 0 0 0 0 0 0 0 0 1 1 1 1 1 1 1 1 1 1 1 1 1 0 0 0 0 0 0 0 0 0 0 0 0 0 0 0 0 0 0 0 0 0 0 0
0 0 0 0 0 0 0 0 0 0 0 0 0 1 1 1 1 1 1 1 1 1 1 1 1 1 1 1 1 0 0 0 0 0 0 0 0 0 0 0 0 0 0 0 0 0 0 0 0
0 0 0 0 0 0 0 0 0 0 0 0 0 0 1 1 1 1 1 1 1 1 1 1 1 1 1 1 1 1 0 0 0 0 0 0 0 0 0 0 0 0 0 0 0 0 0 0 0
0 0 0 0 0 0 0 0 0 0 0 0 0 0 0 1 1 1 1 1 1 1 1 1 1 1 1 1 1 1 1 0 0 0 0 0 0 0 0 0 0 0 0 0 0 0 0 0 0
0 0 0 0 0 0 0 0 0 0 0 0 0 0 0 1 1 1 1 1 1 1 1 1 1 1 1 1 1 1 1 1 0 0 0 0 0 0 0 0 0 0 0 0 0 0 0 0 0
0 0 0 0 0 0 0 0 0 0 0 0 0 0 0 1 1 1 1 1 1 1 1 1 1 1 1 1 1 1 1 1 0 0 0 0 0 0 0 1 0 0 0 0 0 0 0 0 0
0 0 0 0 0 0 0 0 0 0 0 0 0 0 0 1 1 1 1 2 2 1 1 1 1 1 1 1 1 1 1 1 0 0 0 0 0 0 0 0 0 0 0 0 0 0 0 0 0
0 0 0 0 0 0 0 0 0 0 0 0 0 0 0 1 1 1 1 2 2 1 1 1 1 1 1 1 1 1 1 1 1 1 1 1 1 0 0 0 0 0 0 0 0 0 0 0 0
0 0 0 0 0 0 0 0 0 0 0 0 0 0 0 1 1 1 1 2 1 1 1 1 1 1 1 1 1 1 0 0 0 0 1 1 1 0 0 0 0 0 0 0 0 0 0 0 0
0 0 0 0 0 0 0 0 0 0 0 0 0 0 1 1 1 1 1 1 1 1 1 1 1 1 1 1 1 1 0 0 0 0 1 1 1 0 0 0 0 0 0 0 0 0 0 0 0
0 0 0 0 0 0 0 0 0 0 0 0 0 0 0 1 1 1 1 1 1 1 1 1 1 1 1 1 1 0 0 0 0 1 1 1 1 0 0 0 0 0 0 0 0 0 0 0 0
0 0 0 0 0 0 0 0 0 0 0 0 0 0 0 0 1 1 1 1 1 1 1 1 1 1 1 1 1 0 0 0 0 1 1 1 1 0 0 0 0 0 0 0 0 0 0 0 0
0 0 0 0 0 0 0 0 0 0 0 0 0 0 0 0 1 1 1 1 1 1 1 1 1 1 1 1 1 0 0 0 0 1 1 1 0 0 0 0 0 0 0 0 0 0 0 0 0
0 0 0 0 0 0 0 0 0 0 0 0 0 0 0 0 0 1 1 1 1 1 1 1 1 1 1 1 1 0 0 0 0 0 0 0 0 0 0 0 0 0 0 0 0 0 0 0 0
0 0 0 0 0 0 0 0 0 0 0 0 0 0 0 0 1 1 1 1 1 1 1 1 1 1 1 0 0 0 0 0 0 0 0 0 0 0 0 0 0 0 0 0 0 0 0 0 0
0 0 0 0 0 0 0 0 0 0 0 0 0 0 0 1 1 1 1 1 1 1 1 1 0 0 0 0 0 0 0 0 0 0 0 0 0 0 0 0 0 0 0 0 0 0 0 0 0
0 0 0 0 0 0 0 0 0 0 0 0 0 0 0 0 1 0 0 0 0 0 1 1 0 0 0 0 0 0 0 0 0 0 0 0 0 0 0 0 0 0 0 0 0 0 0 0 0
0 0 0 0 0 0 0 0 0 0 0 0 0 0 0 0 0 0 0 0 0 0 0 1 1 0 0 0 0 0 0 0 0 0 0 0 0 0 0 0 0 0 0 0 0 0 0 0 0
0 0 0 0 0 0 0 0 0 0 0 0 0 0 0 0 0 0 0 0 0 0 0 1 1 1 0 0 0 0 1 1 1 0 0 0 0 0 0 0 0 0 0 0 0 0 0 0 0
0 0 0 0 0 0 0 0 0 0 0 0 0 0 0 0 0 0 0 0 0 0 0 1 1 1 1 1 1 1 1 1 1 1 1 1 0 0 0 0 0 0 0 0 0 0 0 0 0
Wind_Speed
8 12 11 9 7 6 5 2 5 7 8 9 8 7 11 11 8 7 6 10 14 14 14 13 12 11 10 9 9 8 8 8 8 8 8 7 7 7 7 7 7 7 6 6 6 6 6 5 5
10 13 11 8 7 4 4 2 5 8 8 7 6 6 8 11 10 9 8 10 13 14 12 12 13 11 10 9 9 8 8 8 7 7 7 7 7 7 7 7 6 6 6 5 5 5 5 4 4
13 16 9 7 6 4 4 4 6 5 5 5 5 6 7 8 9 8 9 10 12 12 12 13 13 11 10 9 8 8 7 7 7 6 6 6 6 6 6 6 6 5 5 4 4 4 4 3 3
9 9 7 7 6 6 2 2 3 4 5 5 5 6 9 8 7 10 10 10 12 12 12 14 13 11 11 10 9 8 7 7 7 6 6 6 5 5 5 5 5 4 4 4 4 4 3 3 2
11 8 8 8 8 5 2 4 3 3 3 4 5 7 9 10 12 11 10 10 9 11 12 14 13 12 11 10 9 8 7 7 6 6 6 6 5 4 4 5 4 3 3 3 3 3 3 2 2
9 8 9 7 7 4 1 1 2 2 3 4 3 6 8 9 10 9 9 8 9 11 12 12 13 13 11 10 9 8 7 6 5 5 6 6 5 5 5 5 4 4 3 3 3 3 3 3 3
9 9 10 8 7 5 1 2 2 2 3 4 3 5 7 8 8 9 9 9 10 11 12 10 11 11 11 10 10 9 7 7 6 5 5 6 6 6 6 6 6 5 5 5 5 4 5 5 6
9 9 12 9 5 4 2 1 1 2 3 3 2 3 6 9 8 9 9 8 9 10 10 9 9 8 8 9 10 10 8 7 7 7 6 6 7 8 8 8 7 7 6 6 7 7 7 8 9
12 10 10 9 4 3 2 3 2 1 1 3 4 5 9 12 10 9 8 8 8 8 8 8 7 7 6 7 9 9 9 8 7 6 7 6 5 5 6 7 9 9 8 8 8 9 9 10 11
9 9 10 9 6 3 2 3 3 2 0 2 5 7 10 9 9 9 7 7 7 6 6 7 7 6 6 5 5 5 5 6 4 3 3 4 3 2 4 7 10 10 10 9 10 10 9 9 6
11 10 10 9 8 5 4 3 4 4 3 0 5 7 9 8 7 7 7 7 6 6 4 5 6 5 4 3 4 2 2 3 3 3 4 3 2 2 1 2 4 6 8 6 6 8 6 5 4
12 11 12 9 7 6 6 4 3 5 3 2 6 7 8 8 7 7 7 7 7 6 5 5 5 5 4 3 2 2 1 2 2 2 2 2 1 1 1 1 2 3 3 3 3 3 3 3 4
12 11 10 9 9 9 7 5 3 5 2 4 4 6 7 8 6 6 5 6 7 6 5 5 4 5 4 3 1 2 1 1 1 2 1 1 1 1 1 1 1 2 2 2 2 2 2 3 3
11 11 10 11 11 9 8 5 5 3 3 5 5 5 4 5 7 7 6 5 5 6 5 4 5 6 5 3 1 1 1 1 1 1 1 1 1 1 1 2 1 1 1 1 1 1 1 2 2
12 12 11 12 11 9 8 7 5 3 4 4 4 4 5 4 6 7 7 6 5 5 5 4 5 6 5 3 1 1 1 1 1 1 1 1 1 1 1 1 1 1 1 1 1 1 1 1 2
13 12 11 10 9 9 10 9 4 3 5 4 4 4 5 4 4 6 7 6 6 6 5 4 4 6 4 3 1 0 0 1 1 1 1 1 1 1 1 1 0 1 1 1 1 0 1 1 1
12 12 12 9 10 10 10 6 4 5 5 4 5 6 6 7 6 6 7 7 7 6 6 4 3 5 4 3 1 1 1 0 1 1 1 0 0 1 0 0 0 1 1 0 1 0 1 1 2
10 10 10 9 10 11 9 5 4 4 5 5 5 6 6 7 6 7 7 7 6 6 6 5 4 4 3 2 1 1 1 1 1 1 1 1 0 0 0 0 0 1 0 1 1 0 1 1 2
13 12 11 9 9 11 8 5 4 4 5 6 6 6 6 6 7 8 8 7 7 6 5 4 4 3 3 2 1 1 1 1 1 1 2 2 1 1 0 1 0 1 0 0 0 0 1 1 1
15 14 12 9 7 9 7 7 6 6 5 4 5 6 6 7 7 8 8 7 7 6 5 5 4 4 3 2 1 1 1 1 1 1 2 2 1 0 0 1 0 1 1 0 0 1 1 1 1
14 13 11 10 8 10 9 7 5 4 4 4 4 6 6 6 7 8 7 6 7 7 6 5 4 4 2 2 1 1 1 0 1 1 2 2 2 1 1 1 0 1 1 1 1 1 1 1 1
12 11 10 12 11 8 8 6 6 7 5 4 4 5 6 7 7 8 9 7 6 7 6 5 5 4 3 2 2 1 1 1 1 1 2 2 2 2 1 1 1 1 1 0 1 0 1 1 1
12 10 11 12 13 10 8 7 6 6 5 6 6 5 5 7 7 8 8 8 7 7 7 6 5 4 3 2 1 1 0 0 1 2 2 2 2 1 1 1 1 1 1 1 1 1 1 1 1
10 11 11 12 8 10 9 8 6 4 6 7 7 6 6 7 7 8 8 8 7 7 6 6 5 4 3 2 2 1 1 1 1 2 2 1 2 1 2 2 1 0 1 1 0 1 1 1 0
9 8 6 7 7 7 6 6 4 0 3 5 8 8 7 6 7 8 8 8 7 7 7 6 5 4 3 2 2 1 1 1 1 1 1 1 1 1 1 2 1 0 1 0 1 0 1 1 1
9 10 7 7 7 5 6 4 2 2 3 4 7 8 8 7 7 7 7 8 7 7 6 6 5 4 3 3 2 1 1 1 1 1 1 1 1 2 2 2 1 0 0 0 0 1 1 1 1
10 10 9 9 9 7 4 2 2 4 4 5 5 9 10 9 8 7 7 7 7 7 6 5 5 4 3 3 3 3 2 1 1 1 1 1 1 2 3 2 1 1 1 1 0 1 0 0 0
11 9 5 6 5 6 3 3 2 4 3 4 4 6 8 9 9 9 7 6 6 6 6 5 5 5 3 3 2 3 3 2 1 1 1 1 1 1 2 1 1 0 0 0 0 1 0 0 0
8 9 7 5 5 6 4 1 2 4 4 3 6 6 7 8 8 8 7 6 6 6 6 5 5 5 4 3 2 1 2 3 2 2 2 2 1 1 1 1 1 1 0 0 0 1 0 0 1
8 7 6 5 6 7 4 0 2 2 3 3 5 6 6 6 7 7 7 7 6 6 5 5 4 4 4 3 2 2 1 2 2 2 2 2 2 1 1 1 1 1 0 0 0 1 1 1 1
Wind_Direction
248 247 239 249 246 249 274 335 51 57 54 49 43 41 56 52 47 84 106 93 102 112 121 122 122 122 121 118 114 114 118 121 123 124 120 117 117 118 117 114 115 115 116 116 115 117 117 114 116
258 257 247 248 257 275 298 16 56 58 53 53 57 55 67 70 77 99 101 96 108 116 124 123 126 125 126 125 121 120 123 126 126 129 129 128 125 124 122 119 121 123 124 126 127 124 124 125 126
261 260 261 249 255 269 301 36 65 72 70 56 64 60 57 71 83 97 105 109 112 117 123 126 130 131 132 132 129 129 129 133 132 133 132 130 130 132 131 125 123 126 131 134 139 139 140 145 154
257 243 238 256 266 254 272 54 71 72 76 65 65 77 75 64 82 103 113 114 119 123 124 129 133 132 137 138 136 138 139 138 139 140 136 130 132 138 139 137 134 137 144 151 154 151 151 158 176
243 255 251 265 273 273 14 7 45 45 66 63 74 90 87 83 96 110 121 121 126 124 122 131 135 134 135 139 139 137 139 139 140 143 145 143 145 148 152 155 158 161 160 169 176 159 159 165 188
250 252 261 269 276 278 126 48 8 54 64 81 86 104 96 106 113 124 123 125 124 119 118 129 136 139 142 142 141 139 141 143 146 149 152 156 162 167 170 168 168 176 182 193 193 183 189 200 213
256 274 275 275 272 288 354 59 34 39 47 56 51 84 111 117 121 127 124 125 120 119 121 134 144 145 147 146 144 145 150 154 159 166 169 171 179 185 184 178 177 185 194 197 202 212 218 223 227
258 273 281 277 277 304 13 38 22 43 52 71 55 83 124 127 134 130 128 127 119 120 126 136 142 146 154 154 155 155 157 164 174 179 186 189 195 198 195 187 183 192 200 202 208 217 225 232 236
257 263 276 287 286 312 9 336 334 58 29 44 56 66 114 133 140 136 134 128 120 122 130 137 140 147 156 158 156 162 165 172 181 188 195 199 206 198 196 185 176 191 202 208 214 222 229 236 238
244 259 270 291 304 306 324 338 311 295 297 81 85 94 118 139 147 145 137 131 130 133 140 140 143 153 158 153 147 164 168 163 185 180 189 200 212 208 194 169 187 199 208 212 217 227 231 234 235
246 253 266 281 299 313 303 302 307 296 284 132 118 128 135 150 154 145 139 141 143 139 134 132 134 136 136 130 144 161 164 153 182 177 197 197 199 196 176 168 183 202 210 215 211 221 225 225 227
251 255 266 278 295 291 280 270 287 288 277 99 129 148 147 153 160 151 152 148 149 143 146 123 122 121 105 97 122 147 149 155 163 169 197 173 190 215 173 188 188 199 207 205 211 213 219 233 238
255 258 265 274 276 276 272 269 273 275 110 113 137 148 145 152 156 144 144 142 140 144 137 123 121 107 95 86 59 85 82 130 143 152 172 161 183 210 200 218 222 221 215 210 225 216 210 233 247
266 265 266 264 260 261 263 259 256 256 129 142 148 138 142 144 150 143 132 133 137 140 133 127 128 112 107 104 86 71 111 128 135 134 153 182 198 203 216 221 220 250 240 231 227 232 226 232 242
268 268 262 258 256 256 256 254 254 233 157 160 156 155 142 134 142 138 134 140 135 128 124 122 136 119 118 124 141 86 59 87 73 112 145 156 198 204 225 240 227 256 267 259 245 227 232 238 248
258 254 256 257 251 249 247 248 230 171 167 163 150 149 139 131 142 132 140 137 130 134 127 132 135 125 130 132 148 121 112 93 105 134 109 143 201 217 226 224 266 293 284 249 244 226 248 266 263
246 244 247 251 251 245 245 249 199 173 178 171 164 160 163 157 154 138 135 135 138 135 131 135 130 130 136 140 172 184 134 180 152 120 105 121 161 194 242 246 109 276 283 295 282 23 291 275 276
251 253 257 251 254 251 244 229 209 191 192 189 180 170 166 159 146 132 129 133 138 135 137 145 141 132 141 152 177 185 180 157 103 94 111 108 94 3 21 184 123 284 311 314 335 342 283 260 259
264 265 267 258 250 257 252 242 225 213 220 205 188 177 169 154 142 134 134 142 136 134 137 147 143 133 139 144 165 180 185 187 147 155 135 119 109 67 168 5 16 350 332 278 205 235 257 269 261
259 262 262 270 262 260 254 245 236 214 220 217 182 173 170 152 145 136 136 142 141 143 144 145 139 141 148 141 171 191 168 211 157 121 125 129 116 37 146 98 357 56 291 191 254 260 257 255 219
255 265 269 273 266 258 257 258 249 232 218 207 189 171 162 160 149 148 147 147 148 147 152 152 143 139 156 148 168 141 127 251 108 125 122 131 135 129 46 76 47 5 268 200 240 240 256 257 245
262 265 266 272 270 259 248 253 242 226 205 191 198 190 168 165 156 155 151 152 149 145 147 140 138 138 151 146 147 151 155 188 152 131 128 139 132 120 106 46 41 353 319 27 274 36 286 246 235
265 271 270 268 267 272 261 256 237 205 199 196 194 190 172 156 152 153 150 148 142 141 139 138 133 135 137 143 145 163 136 118 87 92 112 135 136 144 113 85 34 354 352 41 320 327 278 255 248
260 270 272 269 262 255 249 256 252 209 202 190 177 175 166 153 151 146 141 138 138 138 134 135 135 136 136 152 149 150 125 94 83 82 105 149 130 131 108 108 74 333 359 43 6 352 275 299 317
249 256 264 259 246 254 260 247 248 178 178 165 159 158 146 145 137 138 141 141 142 141 136 133 133 140 149 157 148 154 162 151 126 131 151 138 121 122 112 102 98 17 5 38 92 300 289 262 259
238 243 248 264 269 266 254 240 176 167 109 121 139 137 134 141 141 145 144 143 147 140 137 133 133 139 153 160 159 159 136 161 148 165 142 115 92 105 107 105 109 77 343 334 127 239 241 208 235
248 250 265 270 275 271 239 189 154 99 109 127 138 143 150 149 151 145 142 146 146 141 138 134 132 136 147 159 164 167 159 176 169 148 143 108 91 105 96 81 71 27 6 356 327 265 267 336 208
253 261 269 268 279 279 249 241 160 158 142 131 156 148 145 146 147 142 143 146 143 140 136 138 140 148 154 157 182 177 166 169 159 133 135 119 109 80 99 105 98 83 32 330 297 286 334 349 357
248 252 251 257 267 275 267 223 118 144 133 154 161 152 146 147 148 145 144 147 140 135 142 148 147 148 156 158 157 152 170 169 162 154 146 132 122 129 129 150 162 181 189 270 299 283 323 319 321
249 259 261 262 273 271 278 38 33 86 132 154 138 131 133 138 145 145 144 142 141 143 145 143 147 158 164 159 158 161 155 159 163 171 164 156 163 171 185 172 194 229 189 125 293 302 332 303 288